Zurück zum Katalog

STARLINK-36402

AktivKommunikationVLEO
NORAD 68966·PAYLOAD·🇺🇸 United States

Gestartet May 1, 2026 von Cape Canaveral Space Force Station

Loading…

Nächste Überflüge (nächste 24 Stunden)

TLE

AktuellSource: CelesTrak SupGP

Epoche: Sep 15, 2026, 02:52 UTC

1 68966C 26099R   26258.11993056  .00001463  00000+0  43221-4 0  2585
2 68966  53.1570 100.8630 0001283  90.5451 121.9267 15.34382893    19

Verfolge STARLINK-36402 in Echtzeit mit AllMySat

Download on the App Store